Starlink 31513

operational
NORAD ID: 59529 Int'l Des: 2024-073 Owner: SPXS Country: US Constellation: starlink
LEOCIRCULAR

About Starlink 31513

Description loading...

Live Position

Loading 3D Globe...

Upcoming Passes

Altitude History

Altitude vs Time

uPlot chart will show altitude changes over time

Two-Line Element Set

1 59529U 24073U 25258.59123174 .00002657 00000-0 10602-3 0 9992
2 59529 43.0000 223.6339 0001014 266.9042 93.1693 15.27586195 79435
Epoch: Sep 15, 2025 • Age: 19 hours

Current Status

Altitude 484.4 km
Velocity 7.63 km/s
Sub-Earth Point 31.73°N, 141.57°W
Launch Date Apr 17, 2024
Age 1.4 years
Type internet

Technical Details

Classification Payload
Mass 730.00 kg
Dry Mass 700.00 kg
Total Mass 730.00 kg
Length 0.30 m
Diameter 4.10 m
Span 29.00 m
Shape Box + pan
Manufacturer SPXS
Bus Type Starlink V2M
Phase Status In Orbit
Owner/State SPXS/US

Large Constellations

Loading constellations...